GFSWCAN_sfc_temp_033.txt.gz
Temp
55 55 55 55 55 55 54 54 54 54 54 54 54 55 55 55 54 52 53 60 58 53 58 66 67 60 62 61 53 59 62 62 60 53 54 55 55 59 59 60 57 55 52 53 53 50 49 74 73 62 61 62 72 68
54 54 54 55 55 54 54 54 54 53 53 54 54 54 55 55 54 54 55 63 66 57 57 66 68 70 68 67 59 60 59 59 60 56 57 57 56 58 56 52 64 56 60 57 59 56 66 68 67 70 65 70 70 69
54 54 54 54 54 54 54 54 54 54 54 54 54 54 54 54 53 53 51 57 59 57 61 62 64 72 74 71 74 56 61 62 59 62 58 58 55 60 53 55 59 62 67 60 62 65 66 69 69 68 69 70 72 72
54 54 54 54 54 54 54 54 53 53 54 54 53 54 54 53 53 53 50 57 58 58 52 61 76 69 77 73 72 68 64 64 62 62 57 55 54 62 57 57 57 60 63 59 60 63 65 65 63 65 71 72 73 74
53 54 53 53 54 54 54 53 53 53 53 53 53 53 53 53 52 52 54 57 62 57 50 54 65 73 74 69 69 68 63 60 59 57 55 53 60 59 62 61 59 60 57 53 52 58 59 58 62 67 68 72 73 71
53 53 53 53 53 53 53 53 53 53 53 53 53 53 52 52 52 53 54 62 61 61 54 52 68 68 71 69 66 63 62 59 59 57 57 61 65 60 55 54 58 65 62 63 57 67 66 63 62 65 65 73 74 73
52 53 53 53 53 53 53 53 53 53 53 52 52 52 52 51 51 49 49 54 54 55 53 53 57 68 71 67 64 62 63 61 60 58 57 59 61 61 56 52 63 65 68 67 67 69 64 68 63 67 66 66 71 75
52 52 52 53 53 53 53 53 53 52 52 52 52 51 51 51 51 49 57 57 56 55 58 51 54 60 69 60 58 65 60 60 59 58 59 57 60 59 52 60 63 66 67 68 67 69 67 69 68 68 68 68 65 63
52 52 52 52 52 53 53 53 53 52 52 52 51 51 51 53 55 58 59 59 59 55 49 55 52 47 59 62 62 61 62 55 62 57 59 59 55 51 59 60 62 63 63 64 67 69 69 67 67 68 67 65 62 64
51 51 52 52 52 52 52 53 53 52 51 51 50 52 50 59 59 59 57 53 54 56 55 51 60 49 50 54 52 51 55 55 49 57 62 57 55 61 67 66 64 65 67 67 62 60 63 63 65 63 66 65 63 61
51 51 51 52 52 52 52 52 53 52 51 51 51 52 59 58 59 54 49 49 53 51 57 58 59 50 59 48 48 51 48 55 46 54 55 53 52 56 63 63 64 65 67 66 64 65 66 64 65 65 66 66 67 64
51 51 51 52 52 52 52 52 52 50 54 49 48 52 58 56 51 48 47 53 53 52 60 58 60 63 62 62 51 50 48 53 46 57 52 48 51 59 62 63 62 63 64 64 65 64 65 67 67 69 67 68 66 64
51 51 51 51 52 52 52 52 52 52 52 56 49 52 53 50 38 42 42 49 50 59 60 59 57 60 60 62 56 48 43 48 60 51 50 50 54 59 59 61 61 63 64 64 64 66 66 66 67 67 66 69 64 65
50 50 50 51 52 52 52 52 52 52 49 49 49 33 44 44 49 52 53 53 55 61 60 59 56 56 57 52 56 51 55 57 50 48 46 50 53 57 59 60 60 59 60 60 61 63 64 64 64 65 67 66 66 66
51 50 51 51 52 52 52 52 52 53 51 47 51 40 48 55 57 59 51 47 62 64 61 56 57 57 54 52 54 53 50 47 47 44 49 52 56 58 57 57 57 57 57 58 59 60 60 62 61 61 63 64 61 63
50 51 51 51 52 52 51 51 52 55 53 52 54 52 57 55 51 57 60 57 62 62 62 60 55 52 52 53 52 50 50 43 44 49 53 55 54 54 55 55 55 55 55 56 58 59 58 58 58 59 61 60 59 61
51 51 51 51 51 51 51 51 54 52 52 52 53 59 57 55 51 55 55 55 61 57 51 55 50 50 55 50 51 51 46 49 54 55 56 53 51 52 53 53 54 54 54 55 56 58 58 59 60 58 56 54 55 56
50 52 51 51 51 51 53 51 54 54 50 54 51 52 57 57 52 51 51 58 57 55 57 52 56 51 50 49 47 50 53 56 57 54 53 53 52 53 52 51 52 53 54 56 56 56 57 57 56 55 55 55 54 54
54 53 51 51 53 52 53 54 55 48 52 56 59 57 53 55 59 58 59 60 61 61 58 56 53 51 51 51 51 54 54 54 52 53 53 53 51 51 51 52 54 54 55 55 55 55 55 55 54 55 54 55 54 54
52 51 52 52 51 51 50 53 58 52 49 53 56 54 52 54 57 61 60 59 58 57 54 51 53 51 51 53 55 55 54 53 51 49 50 50 51 52 52 53 53 53 53 55 54 51 54 54 54 54 54 53 52 52
53 53 53 53 53 51 50 53 54 52 52 51 53 54 48 57 54 55 54 58 55 52 52 53 53 55 56 56 55 53 52 51 49 49 48 48 51 52 52 53 55 54 52 52 52 52 52 53 54 56 55 53 53 52
56 53 55 52 51 55 55 60 52 54 54 54 54 59 54 49 50 48 53 50 51 53 52 53 53 52 53 52 51 52 52 51 51 50 48 49 50 50 51 52 53 52 52 52 52 51 52 54 56 57 56 55 54 55
53 57 57 58 54 46 46 61 53 56 49 50 54 51 49 47 45 50 43 44 45 49 50 49 49 51 49 51 53 51 51 51 51 51 51 51 53 54 54 53 54 53 52 52 53 53 53 50 53 55 55 55 55 54
53 55 50 52 52 43 57 53 56 53 52 49 47 44 43 42 44 41 37 41 45 48 48 48 49 49 50 50 49 50 51 53 53 53 53 54 54 54 56 58 58 56 55 54 53 52 52 53 51 56 56 56 56 56
42 45 45 33 53 50 48 48 47 43 39 44 41 41 40 42 37 36 36 41 44 46 49 50 49 50 48 49 50 50 52 52 51 51 54 56 56 56 55 55 54 55 60 58 56 57 57 58 59 59 59 59 58 58
35 46 41 47 46 45 46 41 39 39 40 40 41 43 42 39 36 35 41 44 45 46 49 49 49 49 49 50 50 51 52 55 54 53 54 55 54 55 55 55 55 55 60 61 60 61 62 62 63 62 62 61 56 63
36 40 45 52 49 46 41 42 42 40 39 40 42 41 41 36 36 41 46 48 48 50 51 52 51 51 50 51 52 54 57 57 57 60 64 64 65 63 61 60 59 62 66 67 65 66 65 65 64 64 64 64 65 65
39 40 36 42 42 42 40 40 40 40 44 49 45 42 42 40 41 46 48 50 51 52 53 54 54 55 54 56 58 59 61 63 62 64 66 66 66 68 67 66 63 52 61 61 66 66 66 66 66 66 65 64 62 64
38 43 42 41 43 43 42 43 48 51 54 52 48 45 46 49 51 51 51 52 53 53 55 59 61 63 63 64 67 70 70 70 66 62 61 61 63 64 68 67 67 67 65 62 46 55 61 62 63 64 65 63 63 63
45 47 43 44 44 44 50 56 55 57 60 59 57 53 52 53 55 57 57 57 56 57 61 65 66 67 67 68 68 69 71 71 70 67 63 63 66 70 70 68 68 69 68 67 67 64 52 60 58 65 63 63 62 62
54 48 48 54 53 57 60 63 64 63 62 60 59 56 55 58 61 63 62 63 64 66 68 68 68 70 70 69 67 66 66 70 69 68 68 72 72 70 69 69 68 68 68 68 68 66 66 64 64 64 65 62 62 60
56 55 55 52 55 62 63 61 61 59 60 59 59 62 62 61 58 62 66 66 65 65 65 64 68 69 72 72 69 67 58 66 65 66 65 66 66 67 71 70 71 69 69 70 69 68 67 66 64 64 63 63 62 61
57 58 59 58 57 56 60 60 59 59 60 60 61 64 63 62 59 65 71 72 70 69 70 71 72 71 68 68 66 63 59 59 48 42 43 43 42 52 65 67 67 69 70 68 68 67 66 65 64 62 62 62 61 61

GFSWCAN_sfc_temp_036.txt.gz
Temp
54 54 54 55 55 55 54 54 54 54 54 54 54 54 55 55 54 48 44 47 48 43 46 55 58 50 52 50 46 52 53 55 53 51 50 48 49 52 49 53 51 52 47 46 45 43 46 67 68 60 60 61 64 64
54 54 54 54 54 54 54 54 54 53 53 54 54 54 54 54 54 52 41 50 53 44 48 55 60 62 59 59 53 51 51 49 52 48 48 49 52 53 48 47 55 51 54 51 53 51 58 61 61 61 62 62 62 64
54 54 54 54 54 54 54 54 54 53 53 54 54 54 54 54 53 51 40 42 45 42 47 48 53 62 58 60 61 51 51 55 53 55 50 49 48 51 46 48 50 56 57 52 55 56 59 61 64 65 66 65 67 67
54 54 54 54 54 54 54 54 53 53 53 54 54 54 53 53 53 52 40 42 42 42 38 48 63 59 66 63 62 58 58 57 56 54 50 48 48 53 49 52 51 55 56 52 51 55 58 60 61 62 67 67 68 67
53 53 53 53 53 53 53 53 53 53 53 53 53 53 53 53 52 49 43 44 47 43 39 43 54 60 62 63 59 58 55 51 51 51 48 49 50 52 51 51 49 53 53 50 48 55 56 56 60 64 67 65 66 66
53 53 53 53 53 53 53 53 53 53 53 53 53 53 52 52 51 42 43 48 50 45 42 39 52 56 58 60 58 52 53 50 49 48 49 51 55 54 47 45 55 56 58 58 56 58 59 59 61 64 64 64 66 66
52 52 53 53 53 53 53 53 53 53 53 52 52 51 51 51 43 38 42 48 50 46 43 40 44 55 60 56 54 53 52 51 50 47 46 49 51 53 46 46 56 60 62 62 61 63 59 60 59 62 65 67 65 66
52 52 52 53 53 53 53 52 52 52 52 52 52 51 51 51 48 41 46 51 50 44 45 39 44 51 55 50 49 51 49 48 49 49 48 47 49 49 45 53 56 61 61 64 65 66 63 62 62 62 64 64 63 62
52 52 52 52 52 52 52 52 52 52 52 52 51 51 45 42 41 47 59 55 49 47 40 41 40 40 51 47 50 51 49 44 50 48 47 49 45 44 51 56 55 60 59 59 61 64 63 62 62 62 64 62 59 59
51 52 52 52 52 52 52 52 52 52 51 51 44 41 40 46 59 56 48 45 44 44 42 39 44 43 47 45 46 45 45 48 42 48 51 47 44 51 53 55 55 58 60 61 58 57 59 58 60 62 60 62 60 59
51 51 51 52 52 52 52 52 52 51 50 40 38 44 50 56 48 44 41 40 42 41 42 43 45 43 49 44 43 45 42 44 40 45 48 45 42 49 53 55 55 56 58 58 57 57 57 57 57 58 61 62 61 60
51 51 51 52 52 52 52 52 51 44 40 42 43 48 44 45 42 39 39 43 43 43 47 46 47 49 48 52 47 47 46 46 40 48 47 42 44 49 52 54 55 55 58 58 60 59 59 61 60 59 62 61 62 62
51 51 51 51 52 52 52 51 51 50 48 43 42 40 42 41 36 37 37 40 40 46 50 48 48 52 49 50 43 42 41 40 50 45 43 42 46 50 50 51 53 54 57 57 58 59 59 60 61 59 58 61 60 62
51 51 51 51 52 52 51 51 51 49 41 40 41 30 36 35 39 42 42 43 47 47 48 47 46 45 46 45 46 43 47 47 42 39 40 44 49 51 52 54 54 52 54 54 55 56 56 57 56 58 58 57 58 57
51 50 51 51 51 51 51 52 52 45 41 43 43 30 39 44 45 46 46 45 50 49 47 47 47 47 44 45 45 45 45 43 41 38 42 45 47 48 49 50 50 50 50 50 51 52 54 55 55 54 56 56 56 57
50 50 49 51 52 51 51 50 47 45 45 43 42 41 46 43 43 46 47 44 47 47 51 48 44 43 43 44 44 45 44 37 42 45 48 47 46 47 47 48 49 49 49 49 49 51 53 53 52 52 54 55 55 56
50 46 51 51 51 51 51 45 44 45 46 45 42 49 47 49 46 46 47 46 48 47 43 44 42 43 47 44 44 43 40 45 46 46 46 46 46 46 47 47 48 50 50 49 50 53 52 57 57 53 51 51 52 53
47 50 51 51 49 49 46 44 44 47 43 43 40 42 46 47 45 44 45 47 51 50 46 44 46 42 41 43 43 47 48 49 46 47 47 47 48 49 50 50 52 52 52 49 51 52 53 55 53 53 51 50 50 52
49 50 51 51 49 45 43 44 45 40 43 45 48 46 46 47 47 47 47 49 49 49 47 45 44 40 40 42 43 46 46 45 45 46 47 49 50 49 51 52 53 53 53 53 54 54 54 54 53 54 54 54 53 53
51 51 51 52 50 44 44 43 47 42 41 44 46 44 44 44 51 52 47 47 46 46 44 42 41 42 43 45 46 46 46 47 46 45 46 48 51 51 52 53 52 53 53 53 53 51 53 53 53 53 53 52 52 52
50 47 51 47 44 43 42 42 43 44 44 46 46 46 43 46 46 43 42 45 44 40 40 43 45 46 47 47 48 48 47 48 48 48 47 48 50 51 51 51 52 52 51 51 51 52 51 52 53 54 53 51 51 51
46 52 44 46 44 48 45 50 44 45 44 46 46 48 46 43 39 38 41 39 39 41 42 41 42 44 44 46 47 49 50 50 50 50 48 48 49 50 51 51 51 51 51 51 51 51 52 52 54 54 53 52 52 52
50 49 46 49 44 41 42 49 45 47 42 44 46 44 39 38 41 41 38 41 39 42 42 42 43 49 47 49 49 50 51 50 50 50 50 50 51 52 51 51 51 51 51 51 52 51 51 48 50 52 51 51 50 49
52 47 45 44 43 36 48 44 46 42 41 39 38 35 40 38 42 39 37 40 43 46 46 47 48 47 49 49 48 49 50 51 51 51 52 50 48 48 51 52 51 52 52 52 52 51 51 51 50 53 53 54 54 53
39 38 39 29 42 43 43 42 38 36 33 39 38 38 38 40 37 35 35 40 44 45 47 49 48 48 47 48 49 49 51 51 50 50 52 51 50 50 49 49 49 49 49 49 51 54 51 51 51 51 52 52 51 51
32 40 36 39 38 38 37 35 33 36 37 38 39 41 41 38 36 34 40 43 45 46 48 48 48 48 48 49 49 49 51 53 53 52 53 54 54 52 50 48 47 49 52 53 52 53 53 53 53 54 53 54 49 53
34 37 41 44 41 40 38 40 41 39 39 38 41 40 40 36 35 41 45 47 47 49 51 51 51 50 50 50 50 51 52 52 52 53 54 55 56 57 54 51 50 52 58 58 57 57 56 56 56 56 57 58 59 60
38 37 34 40 38 40 39 40 40 39 41 45 44 41 41 40 41 45 47 49 51 51 52 52 53 53 51 51 51 51 52 52 53 53 53 54 55 55 55 55 52 48 53 55 57 57 58 61 61 61 60 57 58 58
37 41 41 39 42 41 42 42 44 47 50 47 45 43 44 47 49 49 50 51 51 51 50 51 52 53 54 54 54 55 58 53 51 50 50 50 51 53 54 55 54 53 54 55 47 52 58 57 58 57 58 56 55 55
43 44 41 43 42 42 46 48 49 53 54 53 50 49 50 51 52 53 52 51 51 51 54 54 55 53 53 53 56 56 57 56 58 56 52 51 53 56 56 57 57 56 55 56 56 55 50 54 53 56 55 55 53 56
47 45 44 45 47 51 54 55 55 55 55 53 54 52 51 52 53 54 52 52 52 52 52 54 56 58 55 55 57 58 52 55 56 58 59 56 56 56 56 58 60 61 58 59 59 61 60 59 58 60 59 55 53 52
48 47 49 48 47 53 55 51 50 50 52 51 50 53 53 51 47 51 55 57 55 54 55 55 54 56 56 56 57 55 51 53 54 55 56 55 55 57 58 57 58 59 59 59 58 58 58 56 55 54 54 55 54 53
51 54 54 53 50 51 53 53 51 49 51 50 51 53 53 51 50 55 58 62 60 59 57 58 59 59 57 57 55 52 49 50 46 42 43 44 46 50 54 55 57 58 58 57 56 57 56 56 55 55 54 54 53 53

GFSWCAN_sfc_temp_042.txt.gz
Temp
54 54 54 54 54 54 54 54 54 53 53 54 54 55 55 54 53 43 40 41 41 37 40 48 53 50 50 46 45 51 52 51 52 48 46 45 47 48 46 47 46 49 46 47 44 43 46 58 63 57 58 59 63 62
54 54 54 54 54 54 54 54 53 53 53 53 54 54 54 54 53 47 38 42 42 39 43 46 53 58 57 56 50 48 48 48 51 50 46 45 45 44 42 44 49 47 49 48 50 50 54 57 57 60 59 60 60 62
54 54 54 54 54 54 54 54 53 53 53 53 53 54 54 53 53 49 37 37 38 37 41 43 49 53 52 54 55 49 50 52 51 52 47 45 45 44 42 44 46 50 51 48 51 54 57 57 59 61 62 62 63 64
53 53 53 53 53 53 53 54 54 53 53 53 53 53 53 53 52 51 38 37 38 37 35 44 55 51 57 53 55 54 54 52 51 50 47 44 46 48 44 47 47 51 52 50 50 54 56 59 59 59 62 64 63 64
53 53 53 53 53 53 53 53 53 53 53 53 53 53 53 52 51 44 39 39 40 40 36 39 47 50 54 54 56 52 51 49 50 50 46 47 46 48 46 46 47 51 52 49 48 54 53 55 58 61 61 62 64 63
53 53 53 53 53 53 53 53 53 53 53 53 52 52 52 52 50 39 40 41 41 42 38 35 45 48 52 55 52 49 48 45 46 46 44 44 47 48 44 43 52 52 54 54 54 56 56 58 61 62 62 62 64 63
53 53 53 53 53 53 53 53 53 53 52 52 52 51 51 51 40 38 41 44 45 41 39 36 39 48 50 49 49 49 46 44 46 43 43 43 46 46 43 43 53 54 57 58 58 58 57 59 57 61 63 65 64 66
52 52 52 53 53 53 53 52 52 52 52 52 51 51 51 51 46 39 43 48 46 39 40 35 38 43 48 45 46 44 45 43 44 44 43 44 44 42 41 48 52 55 58 59 60 59 59 60 60 61 63 63 62 62
52 52 52 52 52 52 52 52 52 51 51 51 51 51 42 40 38 43 55 51 43 43 38 37 35 37 47 43 44 45 43 42 43 43 43 46 40 40 44 45 49 54 55 57 57 59 59 59 59 60 61 61 60 60
52 52 52 52 52 52 52 52 52 51 50 50 42 39 38 41 54 53 44 41 41 40 38 35 38 38 43 42 42 41 41 40 39 43 44 42 41 43 46 46 47 49 52 56 55 54 55 55 57 58 59 60 60 59
52 52 52 52 52 52 52 52 51 50 47 38 36 37 45 51 44 40 37 36 37 36 37 37 38 39 45 42 40 41 39 40 37 42 43 38 39 44 48 49 50 51 53 53 54 53 54 54 55 56 57 58 58 59
51 51 51 52 52 52 52 51 51 42 38 41 40 42 40 41 38 35 34 37 36 37 41 40 41 41 44 45 42 41 40 41 37 44 42 37 44 46 48 49 50 50 53 54 55 55 56 57 56 56 56 57 56 56
52 51 51 51 52 52 52 51 50 49 45 40 39 37 39 37 36 35 32 34 34 41 43 43 42 44 45 46 43 42 40 39 44 41 40 42 48 48 48 49 51 52 53 53 54 55 55 55 57 56 55 57 57 56
49 50 51 51 51 51 51 51 51 48 40 41 37 30 33 32 34 35 36 37 42 42 44 44 43 42 44 44 44 43 43 43 39 38 40 46 49 51 49 50 49 49 50 50 51 52 52 52 53 54 55 55 55 55
48 49 50 51 52 51 51 51 51 43 42 39 42 34 34 40 39 39 40 40 43 45 45 45 44 43 42 44 43 44 41 39 39 39 43 46 48 47 46 47 47 47 47 48 49 49 50 51 51 51 53 53 53 53
48 50 49 51 51 51 51 50 46 43 43 38 38 35 42 37 38 39 40 40 44 45 46 45 42 42 41 41 41 41 41 36 39 42 44 45 45 45 45 46 46 47 49 50 50 50 49 48 49 50 51 52 52 53
50 46 51 51 51 50 50 44 43 41 41 39 37 40 38 38 38 39 41 42 44 44 42 43 41 39 42 39 39 40 39 41 42 44 44 44 44 44 45 45 48 52 52 53 51 52 51 51 52 52 52 52 51 52
46 49 51 50 47 47 44 43 41 41 38 39 39 43 45 44 44 42 43 44 43 43 43 43 42 39 37 39 38 41 42 43 43 43 43 44 45 45 47 49 52 53 53 53 52 52 53 53 52 52 51 52 51 55
49 50 51 51 48 43 40 40 42 37 39 40 43 40 42 47 45 45 43 43 42 43 43 41 40 37 39 39 40 41 42 42 42 43 43 45 45 47 51 52 53 53 53 53 53 53 53 53 53 53 53 54 52 52
51 51 52 52 50 42 42 41 43 39 38 41 41 43 44 45 46 45 40 39 40 41 41 39 39 40 40 42 43 43 43 43 45 45 43 46 49 51 51 51 51 52 52 52 52 49 52 52 52 52 52 52 51 51
48 48 51 47 44 42 40 39 38 38 39 39 42 41 42 41 38 38 37 38 40 36 38 40 41 42 43 44 45 45 46 46 47 47 47 47 50 50 51 51 51 52 51 51 51 50 50 50 51 52 52 52 52 51
43 51 44 47 42 44 39 40 39 40 42 43 44 46 43 41 39 36 37 37 37 39 39 40 42 42 43 44 44 46 48 49 49 49 47 48 48 50 49 50 51 51 50 51 51 50 50 51 52 53 52 51 51 52
49 47 45 45 39 36 38 43 41 43 39 42 44 42 39 39 39 37 35 35 37 39 41 41 42 44 45 47 49 49 50 49 50 50 50 50 51 50 50 51 52 51 50 50 50 50 50 47 49 51 51 52 52 51
49 41 38 37 38 37 44 43 43 40 39 38 37 34 34 35 37 35 33 35 38 41 43 45 47 47 48 48 48 48 49 51 50 49 48 50 49 49 50 51 51 51 50 51 51 51 50 51 49 52 53 53 53 52
35 35 35 30 39 39 39 39 34 34 33 34 34 33 34 37 36 35 35 40 42 44 46 47 47 47 47 47 48 49 51 51 48 47 48 49 49 48 47 47 47 48 49 51 50 50 50 51 52 53 52 53 52 51
26 36 33 35 33 35 34 33 32 33 34 33 34 37 40 38 36 34 39 42 44 45 47 47 47 47 48 48 48 49 50 51 50 48 49 49 48 48 48 49 49 51 52 53 53 54 54 54 54 55 54 54 47 54
31 33 37 41 37 36 37 38 38 35 35 36 39 39 39 35 35 39 44 45 46 48 50 50 49 49 49 50 51 52 52 52 52 51 51 52 52 52 52 52 52 54 56 55 55 55 54 54 54 54 55 55 55 56
37 37 36 39 36 37 37 38 38 37 40 43 43 40 39 39 40 44 46 48 50 51 51 52 52 52 51 51 52 52 53 53 52 52 51 52 52 53 54 55 53 44 50 53 55 55 56 58 57 57 56 56 55 56
37 40 39 38 40 39 40 40 42 45 48 46 43 43 44 46 48 48 48 50 52 52 50 50 51 54 54 53 52 52 51 51 53 52 51 50 50 54 52 53 54 54 53 55 46 47 55 56 57 59 58 56 55 55
41 43 40 41 40 40 44 46 45 49 49 48 48 48 47 48 50 51 50 51 50 50 52 53 53 53 52 52 52 53 52 52 53 55 53 52 53 55 55 56 56 56 55 56 57 57 48 56 53 58 57 56 55 55
45 43 42 43 43 46 48 50 51 52 52 50 50 49 48 50 52 52 53 53 53 52 52 52 53 54 52 52 51 52 53 53 52 53 56 56 56 56 55 55 55 55 55 56 58 59 59 58 58 58 58 56 54 52
43 42 42 43 44 50 52 50 49 50 51 50 48 51 51 50 49 53 56 55 52 53 52 52 51 52 54 54 53 53 48 55 54 53 54 54 56 56 57 57 56 56 57 57 57 58 58 57 56 56 56 55 54 54
46 47 47 47 46 46 49 49 47 47 48 48 49 50 50 49 48 53 54 56 56 57 55 54 54 55 54 54 53 52 49 51 45 41 44 44 45 49 55 56 57 58 58 57 57 57 57 57 56 55 55 55 55 55

GFSWCAN_sfc_temp_045.txt.gz
Temp
55 54 55 55 55 54 54 54 54 53 53 54 54 55 55 54 54 50 52 50 52 52 56 56 59 58 60 57 51 55 59 60 62 59 61 58 60 59 60 58 59 61 61 58 59 60 58 66 72 69 68 70 71 71
54 54 54 54 54 54 54 54 54 53 53 54 54 54 54 54 53 49 52 52 51 51 56 55 60 64 64 63 57 56 54 55 58 59 59 58 58 59 54 58 62 60 61 63 63 64 62 64 64 68 69 69 71 71
54 54 54 54 54 54 54 54 54 53 53 53 53 54 54 53 53 50 47 47 51 51 56 57 62 63 62 61 67 56 56 58 59 59 59 59 54 59 59 59 59 62 62 63 62 62 64 65 67 68 70 71 72 73
54 54 54 53 53 54 54 54 54 54 53 53 53 53 53 53 52 51 48 49 50 50 50 59 64 62 65 63 62 64 61 60 59 61 60 58 59 59 61 60 62 65 63 60 61 63 64 66 66 66 70 71 71 73
53 53 53 53 53 53 54 54 54 53 53 53 53 53 53 52 51 49 48 50 51 50 50 55 60 63 65 62 62 62 61 59 61 60 59 59 61 61 60 62 64 67 63 64 61 63 63 63 65 68 70 70 72 72
53 53 53 53 53 53 54 53 53 53 53 53 52 52 52 51 50 52 51 53 53 52 50 51 58 59 63 65 63 60 60 58 60 60 60 59 57 59 60 59 63 64 65 67 63 65 65 66 66 68 68 70 71 72
52 53 53 53 53 53 53 53 53 53 52 52 52 51 51 51 50 51 50 51 50 53 51 50 54 61 60 62 63 61 58 59 60 58 58 58 59 60 61 59 66 67 68 67 66 66 65 66 68 69 69 70 67 72
52 52 52 53 53 53 53 52 52 52 52 52 51 51 51 50 49 50 56 51 53 51 51 47 52 56 59 61 60 59 60 59 58 59 57 59 57 58 56 62 62 65 66 68 69 69 68 70 69 69 71 71 70 70
52 52 52 52 52 52 52 52 52 52 51 51 51 50 49 49 50 52 54 53 53 52 49 49 49 49 58 56 58 59 59 55 57 57 58 58 56 54 57 56 59 61 62 67 68 69 69 67 68 68 70 72 72 71
52 52 52 52 52 52 52 52 52 51 51 50 50 49 47 51 54 54 52 51 51 52 51 48 53 49 54 55 51 52 56 56 52 56 58 55 56 55 57 57 57 58 60 64 63 65 65 67 67 68 68 70 71 71
52 52 52 52 52 52 52 52 51 49 48 48 46 46 51 52 54 52 47 47 48 46 49 51 51 53 57 52 51 51 50 53 48 53 53 51 52 54 56 58 59 61 63 64 64 65 66 66 66 66 67 67 68 68
52 52 52 52 52 52 52 51 50 49 48 48 47 48 49 51 47 44 43 46 45 46 51 51 53 54 56 55 53 49 50 51 47 55 50 48 51 54 57 58 60 61 62 63 64 63 64 65 66 66 66 66 67 66
51 51 52 52 52 52 52 51 50 49 48 49 47 46 47 46 35 36 38 43 44 51 52 52 51 55 53 54 51 50 47 50 54 49 49 51 52 55 56 58 59 61 61 61 62 63 64 64 65 65 64 66 66 66
49 50 50 52 51 51 51 51 50 49 50 46 43 33 41 39 43 46 47 49 54 51 52 52 52 51 52 50 52 49 52 50 47 45 47 51 52 53 53 56 58 58 59 59 59 60 61 61 62 63 63 64 63 63
52 51 50 51 51 51 51 51 51 50 48 44 45 37 41 49 51 51 51 49 54 53 52 50 49 50 48 49 50 49 45 45 46 46 50 50 52 53 56 57 57 57 58 58 60 59 59 60 59 59 62 63 63 62
50 50 49 51 51 50 51 50 50 49 47 45 44 43 49 47 48 50 50 50 53 52 52 51 47 45 47 50 46 47 45 43 47 50 53 55 55 56 55 56 56 56 57 56 59 59 59 58 58 59 61 61 61 62
49 46 50 51 50 50 50 49 47 44 46 43 46 48 47 49 47 49 51 52 52 51 50 50 46 47 52 49 47 50 48 51 54 55 56 54 54 55 55 55 56 55 55 55 56 58 57 57 57 55 55 57 58 59
47 49 51 50 51 50 50 48 46 45 42 47 46 49 51 50 50 51 52 52 50 52 51 51 54 49 48 46 49 52 55 57 57 56 56 55 55 55 54 53 53 54 55 55 55 55 56 56 55 54 54 58 57 58
50 50 50 51 51 49 45 45 46 42 46 49 51 49 49 50 51 52 52 51 51 54 53 53 51 51 50 51 53 54 56 56 56 55 55 54 54 54 54 52 55 54 54 54 54 54 56 55 55 55 55 56 54 53
51 51 52 52 52 48 44 45 48 44 44 47 48 49 47 46 49 50 53 52 54 55 53 51 52 52 52 54 55 55 55 54 49 47 50 55 54 54 51 52 54 55 55 56 55 50 54 54 54 54 53 53 53 52
51 51 52 52 50 48 46 45 45 47 47 46 49 48 48 46 48 50 51 51 54 50 51 52 54 54 53 54 55 55 54 52 49 49 49 48 50 50 52 52 52 53 54 52 54 52 51 52 53 54 53 53 54 53
49 51 50 50 46 46 44 48 46 49 46 48 48 50 48 49 49 48 47 51 51 51 51 53 53 53 53 52 52 52 53 53 53 50 47 48 49 50 50 52 52 52 51 51 51 51 52 54 57 57 54 52 52 54
49 47 46 47 42 40 43 50 46 48 44 45 47 45 44 43 44 49 46 47 48 50 51 50 51 51 50 53 53 53 54 52 50 50 51 51 52 52 52 54 57 54 52 51 52 51 51 47 53 59 54 52 53 52
50 45 42 41 42 40 50 47 49 47 47 44 43 42 44 45 46 45 41 44 48 49 48 50 51 51 51 50 50 51 50 51 52 51 52 53 51 53 57 57 56 58 57 58 54 56 56 57 53 62 58 60 61 60
38 40 41 33 44 42 42 42 42 42 40 42 42 42 43 44 41 38 37 45 47 49 50 50 49 49 48 51 50 50 53 54 55 54 53 55 53 54 57 58 59 59 65 63 61 61 61 60 63 64 63 63 62 62
34 41 38 42 42 42 39 38 38 40 41 41 42 45 45 42 38 36 43 47 47 49 50 50 48 48 49 50 50 52 55 57 57 57 56 60 60 63 61 58 61 61 65 66 65 64 63 65 65 63 65 62 49 63
35 39 43 46 45 41 41 44 44 42 40 40 44 41 41 36 36 43 48 50 49 52 53 50 50 50 50 52 55 57 59 59 61 62 63 64 65 67 66 63 62 66 67 61 62 63 63 64 64 64 65 67 66 66
41 41 35 43 43 43 38 40 40 40 43 47 46 41 40 41 42 48 48 52 53 54 52 52 52 52 52 53 60 61 61 63 63 64 64 65 66 67 66 67 66 45 63 65 65 65 64 65 64 63 61 63 66 67
39 44 43 40 41 41 43 43 44 48 50 50 44 42 44 47 50 50 51 54 54 53 51 51 52 54 56 59 56 58 62 64 64 60 60 63 64 67 67 67 68 68 69 69 42 53 63 66 65 66 66 69 68 68
43 44 40 41 40 40 44 46 46 50 49 48 49 48 48 50 53 54 53 53 53 52 52 58 59 61 62 64 64 65 68 66 65 66 65 65 67 70 69 69 69 71 70 70 70 69 49 63 58 66 64 68 68 67
45 43 42 43 43 46 48 50 50 50 50 49 50 50 50 50 51 52 53 54 54 54 58 60 61 63 63 63 62 63 65 66 65 64 65 67 69 70 70 70 71 70 70 69 68 68 69 68 68 67 67 65 63 61
47 44 44 43 45 49 50 49 50 50 50 50 49 51 51 51 50 53 59 59 59 59 57 59 62 63 64 64 64 63 49 65 66 65 63 65 66 68 70 70 70 69 68 69 69 69 68 66 67 66 65 63 62 62
49 51 50 50 50 50 54 54 53 53 55 54 55 57 57 57 54 62 63 64 64 64 65 65 65 65 62 62 63 62 54 63 49 39 41 43 45 54 67 70 69 69 68 68 68 67 65 64 64 63 63 62 62 62

GFSWCAN_sfc_temp_048.txt.gz
Temp
54 54 55 55 55 55 54 54 54 53 53 54 54 55 55 54 54 59 62 62 62 65 69 67 68 66 70 71 65 67 69 69 69 67 68 72 70 72 69 67 69 71 70 71 71 68 63 76 80 75 72 79 80 82
54 54 54 54 55 54 54 54 54 53 53 54 54 54 54 54 53 55 67 66 65 61 67 68 71 72 70 71 67 69 63 62 62 63 68 69 70 72 65 64 71 67 69 72 70 70 71 75 73 75 76 75 79 80
54 54 54 54 54 54 54 54 54 54 53 53 54 54 54 53 53 54 62 62 65 63 69 69 70 71 75 73 77 67 71 65 63 65 62 67 62 71 67 67 68 70 72 74 68 69 72 72 74 75 77 77 80 82
54 54 54 54 54 54 54 54 54 54 53 53 53 54 53 53 52 52 61 64 62 63 61 67 76 71 74 75 72 74 70 69 64 65 64 64 67 70 71 69 69 74 72 68 70 71 73 73 73 73 76 78 78 80
54 53 53 53 54 54 54 54 54 54 53 53 53 53 53 52 52 57 63 65 66 59 60 69 73 73 76 73 71 72 70 67 67 63 63 63 68 68 74 73 74 77 71 71 69 71 72 72 73 76 76 77 80 80
53 53 53 53 53 53 54 54 53 54 53 53 53 53 52 52 52 61 59 64 68 64 60 63 72 69 72 72 71 69 73 72 72 66 65 71 66 64 67 67 72 75 75 76 72 74 73 74 73 75 76 78 79 80
52 53 53 53 53 53 53 53 53 53 53 53 52 52 52 51 58 58 57 58 55 63 61 62 66 71 71 71 74 74 71 74 71 70 66 68 70 68 68 64 73 75 76 75 76 75 73 74 74 75 76 77 73 80
52 52 52 52 53 53 53 53 53 53 53 52 52 52 51 51 52 58 64 54 57 60 63 58 65 65 70 69 67 75 72 72 68 69 68 66 69 69 62 70 71 72 73 74 76 77 78 78 76 75 78 78 77 78
52 52 52 52 52 53 53 53 53 52 52 52 52 51 57 57 60 60 54 54 62 61 58 62 60 58 71 70 72 70 71 63 70 65 67 67 65 59 65 64 67 68 67 69 73 76 78 75 74 73 73 73 76 76
51 51 52 52 52 52 52 52 52 51 51 51 55 58 55 60 53 54 58 58 59 62 62 58 69 61 68 68 63 64 68 64 59 65 70 62 63 67 67 65 66 67 70 71 69 71 75 74 74 75 75 77 77 77
51 52 52 52 52 52 52 52 51 50 48 56 55 57 60 54 60 60 54 53 58 54 61 63 63 64 69 60 59 65 60 60 53 62 60 60 60 65 65 65 67 69 70 71 71 72 74 74 74 75 74 75 76 74
52 52 52 52 52 52 52 52 51 54 59 54 56 56 61 57 56 50 51 55 53 55 61 61 64 65 68 68 59 60 56 61 51 64 57 56 61 63 66 65 66 68 69 69 70 69 71 71 72 72 74 73 73 73
52 52 52 52 52 52 52 51 51 51 52 58 55 53 54 52 39 43 44 51 54 59 61 62 60 65 64 66 60 58 53 55 68 54 54 56 60 62 64 67 66 68 69 69 69 70 71 71 72 72 72 74 74 73
51 51 51 52 52 52 51 51 51 52 57 55 49 35 46 45 50 54 57 60 61 64 63 62 63 62 66 58 63 52 58 59 51 50 51 55 60 61 61 62 63 64 67 68 68 69 69 70 70 71 71 72 71 70
50 51 51 51 52 52 51 51 51 58 58 49 53 40 48 58 61 64 65 62 64 67 64 59 62 63 58 54 60 57 52 48 53 52 56 56 56 57 58 64 65 65 65 66 67 68 68 68 67 67 69 70 70 69
51 50 49 51 51 51 51 52 53 58 56 53 52 51 58 56 59 60 61 62 68 65 64 64 55 53 51 54 52 51 47 46 52 55 57 59 60 63 63 64 64 64 63 64 63 64 66 67 66 66 68 68 67 67
51 47 51 51 51 50 52 55 52 48 52 49 53 59 60 62 60 62 63 61 66 62 54 58 51 51 60 53 52 57 54 54 59 60 65 61 61 61 62 62 62 58 57 59 63 61 61 63 64 62 58 60 60 61
44 51 50 50 51 52 56 55 51 50 47 55 53 58 62 63 60 60 62 65 62 61 59 56 64 54 53 51 55 57 60 64 65 64 65 63 62 62 62 57 58 56 56 56 58 60 62 63 62 59 59 60 61 60
50 50 50 52 54 55 52 51 53 48 53 59 60 62 63 61 62 62 65 65 64 66 62 62 56 56 58 60 60 61 63 64 62 64 64 63 62 61 59 57 57 60 60 61 61 59 61 60 59 59 57 57 56 56
51 51 52 52 53 55 48 51 55 50 49 56 59 56 57 56 55 59 59 66 64 63 58 57 58 60 59 62 65 64 65 63 61 59 63 64 60 56 56 53 54 57 59 60 60 53 57 57 57 57 57 56 55 54
54 54 54 57 58 56 53 53 52 55 58 54 56 54 51 60 57 55 60 65 61 63 59 64 64 63 62 63 66 65 64 62 55 53 53 51 52 52 51 53 54 53 54 56 54 53 53 54 55 57 55 55 56 57
56 52 59 58 55 53 52 56 52 59 54 54 53 54 53 52 54 56 62 60 62 64 65 65 65 65 63 61 63 61 60 58 55 54 48 49 49 52 52 54 54 54 54 53 52 53 56 55 58 56 56 54 54 54
53 54 56 54 49 46 47 59 51 54 50 52 58 53 55 57 59 62 57 61 62 63 64 63 60 59 58 59 59 58 59 57 53 52 52 52 54 54 56 57 58 55 55 52 55 55 56 50 58 54 53 54 59 63
51 51 47 45 48 45 57 53 58 57 54 52 50 49 52 56 60 56 50 58 62 62 60 57 60 57 57 53 53 57 53 52 52 52 53 55 55 57 61 63 62 63 60 64 65 67 68 68 59 65 68 69 69 69
41 42 45 35 52 47 47 49 49 51 46 50 48 49 53 57 51 46 42 56 59 59 60 59 56 55 50 52 51 51 55 56 54 54 57 64 67 67 67 69 69 71 70 68 66 65 68 71 71 71 70 70 69 69
36 47 40 48 49 47 48 44 44 46 49 47 49 54 54 51 43 39 52 57 58 56 56 54 53 50 52 54 53 55 57 64 63 65 66 71 69 68 68 65 61 64 72 69 72 71 71 73 71 69 70 65 51 68
38 43 49 57 54 51 49 53 55 51 46 46 52 47 47 40 39 49 58 60 58 59 58 56 52 52 53 54 59 63 67 68 69 70 71 74 74 69 72 67 67 68 75 74 75 72 71 72 71 69 68 68 71 72
47 45 39 46 48 54 45 48 46 45 51 58 54 46 44 45 48 55 55 60 59 57 53 52 53 54 55 60 66 68 69 72 70 72 74 75 75 77 74 78 76 45 70 70 71 76 74 73 71 70 72 72 72 73
42 49 47 43 45 47 49 49 50 55 58 58 48 46 45 50 52 53 57 61 55 53 52 52 52 57 58 61 67 71 73 73 69 65 64 66 69 71 76 77 76 76 78 75 41 54 67 71 68 72 70 73 75 76
43 47 42 41 40 40 48 53 51 53 50 49 49 49 49 53 56 60 62 57 53 52 53 55 56 57 59 66 68 69 74 75 74 71 69 69 71 75 75 75 76 77 79 78 78 75 48 64 60 73 72 73 74 73
45 43 41 42 43 47 49 51 51 50 50 49 51 49 49 49 51 54 61 60 55 59 62 62 67 71 71 71 71 70 71 75 74 73 74 76 78 77 77 77 78 79 78 76 75 75 75 72 74 72 71 69 68 65
46 44 44 43 45 49 50 49 48 48 50 50 50 53 52 51 50 58 63 65 64 63 60 65 70 72 73 75 74 73 49 73 74 76 72 75 75 77 78 79 79 78 78 77 77 76 74 71 71 70 70 67 67 66
51 52 56 58 56 55 60 60 58 57 59 58 58 63 64 63 58 65 70 70 68 69 70 72 75 75 71 69 71 72 57 72 54 40 43 43 44 58 74 78 77 77 76 76 75 74 71 68 69 67 67 66 66 66